Content
SEND FEEDBACK

Daily
Averages
Monthly
Summary
Switzerland

GENEVA, SWITZERLAND


Home > Europe > Switzerland
Elevation: 1364 feet     Latitude: 46 15N     Longitude: 006 08E

WEATHER
 
SELECT A DAY
Number of Records: 305,246;   Date Range: 7/1/96 - 7/7/14
 
SHARE

PRINT THIS DATA

[ ← Previous Day ]
WEATHER ALMANAC - MARCH 1, 2013
[ Next Day → ]
[ °C ]   °F
Weather ElementAverageHighLow
Temperature32.6 °F39.2 °F (3:20 pm)24.8 °F (2:50 am)
Dewpoint27.7 °F30.2 °F (8:50 am)23 °F (1:20 am)
Humidity81 %100 % (6:20 am)60 % (3:00 pm)
Barometer30.12 in30.25 in (1:00 am)30.04 in (3:50 pm)
Wind Speed5.6 mph12.7 mph (9:00 pm)
Weather ElementAverage
Visibility3.1 mi
Wind DirectionENE (64.1 °)

Weather ElementTotal
Precipitation---
Heating Degree Days33 (Base 65)
Averaged from 65 records on March 1, 2013
WEATHER CONDITIONS BREAKOUT
WIND DIRECTION BREAKOUT
WEATHER BY HOUR - MARCH 1, 2013
[ °C ]   °F
Local TimeTemperatureDewpointHumidityBarometerVisibilityWind DirectionWind SpeedGust SpeedPrecipitationEventsConditions
12:50 AM28.4 °F24.8 °F86 %30.15 in3.7 miSW (230°)1.2 mph
1:00 AM29.0 °F25.0 °F79 %30.25 in4.0 miWSW (240°)1.2 mphMist
1:20 AM26.6 °F23.0 °F86 %30.15 in3.7 miCalm
1:50 AM26.6 °F24.8 °F93 %30.15 in3.7 miWest (260°)1.2 mph
2:00 AM27.0 °F24.0 °F86 %30.24 inWest (270°)1.2 mph
2:50 AM24.8 °F23.0 °F93 %30.15 in3.7 miCalm
3:00 AM25.0 °F23.0 °F88 %30.24 inWest (280°)2.3 mph
3:20 AM24.8 °F23.0 °F93 %30.12 in3.7 miCalm
3:50 AM24.8 °F23.0 °F93 %30.12 in3.7 miVariable1.2 mph
4:20 AM24.8 °F23.0 °F93 %30.12 in3.7 miCalm
4:50 AM24.8 °F23.0 °F93 %30.12 in3.7 miVariable1.2 mph
5:00 AM25.0 °F23.0 °F89 %30.22 inCalm
5:20 AM24.8 °F23.0 °F93 %30.12 in3.7 miCalm
5:50 AM24.8 °F23.0 °F93 %30.12 in3.7 miVariable2.3 mph
6:00 AM25.0 °F23.0 °F88 %30.21 inNW (310°)4.6 mph
6:20 AM24.8 °F24.8 °F100 %30.12 in3.7 miCalmScattered Clouds
6:50 AM26.6 °F24.8 °F93 %30.12 in3.1 miCalmMostly Cloudy
7:00 AM27.0 °F24.0 °F86 %30.20 in3.0 miWSW (250°)1.2 mphMist
7:20 AM26.6 °F24.8 °F93 %30.09 in2.5 miCalmMostly Cloudy
7:50 AM28.4 °F26.6 °F93 %30.12 in1.7 miVariable1.2 mphMostly Cloudy
8:00 AM30.0 °F27.0 °F82 %30.19 inWNW (290°)1.2 mph
8:20 AM30.2 °F28.4 °F93 %30.12 in1.9 miCalmOvercast
8:50 AM32.0 °F30.2 °F93 %30.12 in1.9 miVariable1.2 mphOvercast
9:00 AM32.0 °F29.0 °F86 %30.20 inWNW (290°)2.3 mph
9:20 AM32.0 °F30.2 °F93 %30.12 inVariable3.5 mphOvercast
9:50 AM33.8 °F30.2 °F87 %30.12 in2.2 miVariable3.5 mphMostly Cloudy
10:20 AM33.8 °F30.2 °F87 %30.12 inVariable3.5 mphOvercast
10:50 AM33.8 °F30.2 °F87 %30.12 in2.8 miNE (50°)8.1 mphOvercast
11:00 AM35.0 °F29.0 °F71 %30.19 inNE (50°)8.1 mph
11:20 AM33.8 °F30.2 °F87 %30.12 in2.8 miNE (50°)6.9 mphOvercast
11:50 AM35.6 °F30.2 °F81 %30.12 in2.8 miNE (50°)9.2 mphOvercast
12:00 PM35.0 °F29.0 °F70 %30.17 inNNE (30°)5.8 mph
12:20 PM35.6 °F30.2 °F81 %30.09 in3.1 miNE (40°)8.1 mphOvercast
12:50 PM35.6 °F28.4 °F75 %30.09 in3.1 miENE (60°)8.1 mphOvercast
1:00 PM36.0 °F29.0 °F66 %30.14 in3.0 miNE (50°)9.2 mphMist
1:20 PM35.6 °F30.2 °F81 %30.06 in3.1 miNE (50°)8.1 mphOvercast
1:50 PM35.6 °F30.2 °F81 %30.06 in3.1 miNE (40°)5.8 mphOvercast
2:00 PM37.0 °F29.0 °F64 %30.13 inNE (40°)8.1 mph
2:20 PM37.4 °F30.2 °F75 %30.06 in3.1 miENE (60°)9.2 mphMostly Cloudy
2:50 PM37.4 °F30.2 °F75 %30.06 in3.1 miNE (50°)9.2 mphMostly Cloudy
3:00 PM38.0 °F29.0 °F60 %30.11 inNE (50°)9.2 mph
3:20 PM39.2 °F30.2 °F70 %30.06 in3.1 miNNE (30°)6.9 mphMostly Cloudy
3:50 PM39.2 °F30.2 °F70 %30.04 in3.1 miNNE (30°)6.9 mphHaze
4:20 PM39.2 °F30.2 °F70 %30.04 in3.1 miNE (40°)8.1 mphHaze
4:50 PM37.4 °F30.2 °F75 %30.04 in3.1 miNE (40°)9.2 mphHaze
5:00 PM38.0 °F29.0 °F60 %30.10 inNE (50°)10.4 mph
5:20 PM37.4 °F30.2 °F75 %30.04 in3.1 miNE (40°)8.1 mphHaze
5:50 PM35.6 °F30.2 °F81 %30.04 in3.1 miNE (40°)9.2 mphPartly Cloudy
6:00 PM36.0 °F29.0 °F68 %30.11 inNE (50°)10.4 mph
6:20 PM35.6 °F30.2 °F81 %30.04 in2.8 miNE (40°)10.4 mphPartly Cloudy
6:50 PM35.6 °F30.2 °F81 %30.06 in2.5 miNNE (30°)10.4 mphScattered Clouds
7:00 PM35.0 °F29.0 °F71 %30.13 in2.0 miNorth (10°)8.1 mphMist
7:20 PM35.6 °F30.2 °F81 %30.06 in3.1 miNorth (10°)6.9 mphMostly Cloudy
7:50 PM35.6 °F30.2 °F81 %30.06 in3.1 miNorth (10°)5.8 mphMostly Cloudy
8:00 PM36.0 °F29.0 °F69 %30.14 inNorth (10°)4.6 mph
8:20 PM35.6 °F30.2 °F81 %30.09 in3.1 miNorth (360°)5.8 mphOvercast
8:50 PM35.6 °F30.2 °F81 %30.09 in3.1 miNNE (30°)9.2 mphOvercast
9:00 PM36.0 °F29.0 °F66 %30.15 inNNE (30°)12.7 mph
9:20 PM35.6 °F28.4 °F75 %30.09 in3.7 miNNE (30°)11.5 mphOvercast
9:50 PM35.6 °F28.4 °F75 %30.09 in3.7 miNNE (20°)12.7 mphMostly Cloudy
10:20 PM35.6 °F28.4 °F75 %30.09 in3.7 miNNE (20°)10.4 mphOvercast
10:50 PM35.6 °F28.4 °F75 %30.09 in3.7 miNNE (20°)9.2 mphOvercast
11:00 PM35.0 °F28.0 °F68 %30.16 inNNE (20°)10.4 mph
11:20 PM35.6 °F28.4 °F75 %30.09 in3.7 miNNE (20°)9.2 mphOvercast
11:50 PM35.6 °F28.4 °F75 %30.09 in3.1 miNNE (30°)9.2 mphOvercast
Hourly data recorded from LSGG, located miles away from Geneva, Switzerland







STORIES FROM OUR PARTNERS